| time (UTC) | temp C | wind direction | speed KPH | gust KPH | rain 1hr cm | rain 24hr cm | rain mn cm | humidity % | barometer mb |
| 20260506233019 | 28 | 223 | 6.4 | 17.7 | 0.00 | 0.00 | 0.00 | 75 | 1007.7 |
| 20260506232517 | 28 | 252 | 9.7 | 22.5 | 0.00 | 0.00 | 0.00 | 76 | 1007.7 |
| 20260506232004 | 28 | 213 | 9.7 | 24.1 | 0.00 | 0.00 | 0.00 | 75 | 1007.6 |
| 20260506231504 | 28 | 265 | 11.3 | 24.1 | 0.00 | 0.00 | 0.00 | 75 | 1007.7 |
| 20260506231008 | 28 | 184 | 9.7 | 22.5 | 0.00 | 0.00 | 0.00 | 74 | 1007.7 |
| 20260506230511 | 28 | 221 | 11.3 | 19.3 | 0.00 | 0.00 | 0.00 | 74 | 1007.7 |
| 20260506230010 | 28 | 199 | 6.4 | 20.9 | 0.00 | 0.00 | 0.00 | 74 | 1007.7 |
| 20260506225512 | 28 | 216 | 9.7 | 20.9 | 0.00 | 0.00 | 0.00 | 74 | 1007.7 |
| 20260506225018 | 29 | 216 | 9.7 | 19.3 | 0.00 | 0.00 | 0.00 | 73 | 1007.7 |
| 20260506224517 | 29 | 163 | 6.4 | 17.7 | 0.00 | 0.00 | 0.00 | 72 | 1007.8 |
| 20260506224019 | 29 | 178 | 6.4 | 17.7 | 0.00 | 0.00 | 0.00 | 73 | 1007.8 |
| 20260506223519 | 29 | 171 | 11.3 | 27.4 | 0.00 | 0.00 | 0.00 | 72 | 1007.8 |
| 20260506223029 | 29 | 183 | 12.9 | 27.4 | 0.00 | 0.00 | 0.00 | 72 | 1007.9 |
| 20260506222532 | 29 | 197 | 12.9 | 24.1 | 0.00 | 0.00 | 0.00 | 71 | 1007.8 |
| 20260506222030 | 30 | 174 | 9.7 | 19.3 | 0.00 | 0.00 | 0.00 | 71 | 1007.9 |
| 20260506221530 | 30 | 207 | 11.3 | 19.3 | 0.00 | 0.00 | 0.00 | 71 | 1007.9 |
| 20260506221007 | 30 | 165 | 9.7 | 19.3 | 0.00 | 0.00 | 0.00 | 71 | 1007.8 |
| 20260506220507 | 30 | 228 | 11.3 | 25.7 | 0.00 | 0.00 | 0.00 | 71 | 1008.0 |
| 20260506220009 | 30 | 184 | 11.3 | 25.7 | 0.00 | 0.00 | 0.00 | 71 | 1008.0 |
| 20260506215510 | 30 | 200 | 9.7 | 24.1 | 0.00 | 0.00 | 0.00 | 70 | 1008.0 |
| 20260506215016 | 30 | 229 | 12.9 | 24.1 | 0.00 | 0.00 | 0.00 | 70 | 1008.1 |
| 20260506214516 | 30 | 173 | 12.9 | 20.9 | 0.00 | 0.00 | 0.00 | 69 | 1008.1 |
| 20260506214016 | 30 | 174 | 9.7 | 20.9 | 0.00 | 0.00 | 0.00 | 68 | 1008.0 |
| 20260506213519 | 30 | 237 | 9.7 | 19.3 | 0.00 | 0.00 | 0.00 | 67 | 1008.1 |
| 20260506213017 | 30 | 161 | 8.0 | 22.5 | 0.00 | 0.00 | 0.00 | 68 | 1008.1 |
| 20260506212515 | 31 | 154 | 9.7 | 22.5 | 0.00 | 0.00 | 0.00 | 67 | 1008.1 |
| 20260506212018 | 31 | 275 | 11.3 | 22.5 | 0.00 | 0.00 | 0.00 | 66 | 1008.2 |
| 20260506211521 | 31 | 238 | 6.4 | 16.1 | 0.00 | 0.00 | 0.00 | 68 | 1008.2 |
| 20260506211006 | 31 | 192 | 6.4 | 17.7 | 0.00 | 0.00 | 0.00 | 68 | 1008.2 |
| 20260506210512 | 30 | 180 | 8.0 | 17.7 | 0.00 | 0.00 | 0.00 | 68 | 1008.2 |
| 20260506210012 | 30 | 192 | 6.4 | 24.1 | 0.00 | 0.00 | 0.00 | 68 | 1008.3 |
| 20260506205508 | 30 | 80 | 8.0 | 24.1 | 0.00 | 0.00 | 0.00 | 68 | 1008.4 |
| 20260506205014 | 31 | 176 | 11.3 | 19.3 | 0.00 | 0.00 | 0.00 | 68 | 1008.4 |
| 20260506204512 | 30 | 225 | 9.7 | 16.1 | 0.00 | 0.00 | 0.00 | 69 | 1008.5 |
| 20260506204019 | 30 | 243 | 4.8 | 16.1 | 0.00 | 0.00 | 0.00 | 69 | 1008.5 |
| 20260506203518 | 30 | 230 | 6.4 | 17.7 | 0.00 | 0.00 | 0.00 | 69 | 1008.5 |
| 20260506203021 | 30 | 263 | 6.4 | 20.9 | 0.00 | 0.00 | 0.00 | 69 | 1008.6 |
| 20260506202523 | 31 | 200 | 9.7 | 17.7 | 0.00 | 0.00 | 0.00 | 69 | 1008.7 |
| 20260506202023 | 31 | 261 | 8.0 | 17.7 | 0.00 | 0.00 | 0.00 | 69 | 1008.7 |
| 20260506201525 | 30 | 215 | 8.0 | 17.7 | 0.00 | 0.00 | 0.00 | 69 | 1008.7 |
| 20260506201011 | 30 | 244 | 6.4 | 17.7 | 0.00 | 0.00 | 0.00 | 69 | 1008.7 |
| 20260506200510 | 30 | 247 | 8.0 | 17.7 | 0.00 | 0.00 | 0.00 | 68 | 1008.7 |
| 20260506200015 | 30 | 202 | 8.0 | 16.1 | 0.00 | 0.00 | 0.00 | 68 | 1008.8 |
| 20260506195515 | 30 | 217 | 6.4 | 17.7 | 0.00 | 0.00 | 0.00 | 69 | 1008.9 |
| 20260506195016 | 30 | 198 | 8.0 | 20.9 | 0.00 | 0.00 | 0.00 | 69 | 1009.0 |
| 20260506194517 | 30 | 228 | 8.0 | 20.9 | 0.00 | 0.00 | 0.00 | 69 | 1009.0 |
| 20260506194023 | 30 | 239 | 8.0 | 19.3 | 0.00 | 0.00 | 0.00 | 68 | 1008.9 |
| 20260506193525 | 30 | 259 | 8.0 | 19.3 | 0.00 | 0.00 | 0.00 | 67 | 1009.0 |
| 20260506193009 | 30 | 224 | 4.8 | 16.1 | 0.00 | 0.00 | 0.00 | 68 | 1009.0 |
| 20260506192506 | 30 | 252 | 8.0 | 16.1 | 0.00 | 0.00 | 0.00 | 68 | 1009.1 |
| 20260506192010 | 31 | 272 | 8.0 | 17.7 | 0.00 | 0.00 | 0.00 | 68 | 1009.1 |
| 20260506191511 | 31 | 221 | 8.0 | 17.7 | 0.00 | 0.00 | 0.00 | 67 | 1009.1 |
| 20260506191017 | 31 | 190 | 8.0 | 14.5 | 0.00 | 0.00 | 0.00 | 68 | 1009.2 |
| 20260506190517 | 30 | 223 | 9.7 | 14.5 | 0.00 | 0.00 | 0.00 | 67 | 1009.3 |
| 20260506190019 | 31 | 252 | 6.4 | 16.1 | 0.00 | 0.00 | 0.00 | 68 | 1009.4 |
| 20260506185518 | 31 | 194 | 8.0 | 17.7 | 0.00 | 0.00 | 0.00 | 68 | 1009.5 |
| 20260506185048 | 31 | 254 | 8.0 | 17.7 | 0.00 | 0.00 | 0.00 | 68 | 1009.5 |
| 20260506184550 | 31 | 201 | 6.4 | 16.1 | 0.00 | 0.00 | 0.00 | 69 | 1009.7 |
| 20260506183619 | 30 | 253 | 8.0 | 16.1 | 0.00 | 0.00 | 0.00 | 69 | 1009.7 |
| 20260506183008 | 30 | 181 | 9.7 | 14.5 | 0.00 | 0.00 | 0.00 | 68 | 1009.7 |
| 20260506182528 | 30 | 217 | 6.4 | 14.5 | 0.00 | 0.00 | 0.00 | 69 | 1009.7 |
| 20260506182054 | 30 | 246 | 6.4 | 17.7 | 0.00 | 0.00 | 0.00 | 70 | 1009.8 |
| 20260506181615 | 30 | 255 | 8.0 | 17.7 | 0.00 | 0.00 | 0.00 | 70 | 1009.8 |
| 20260506181016 | 30 | 232 | 9.7 | 14.5 | 0.00 | 0.00 | 0.00 | 70 | 1009.9 |
| 20260506180536 | 30 | 280 | 6.4 | 16.1 | 0.00 | 0.00 | 0.00 | 71 | 1009.9 |
| 20260506180055 | 30 | 232 | 6.4 | 16.1 | 0.00 | 0.00 | 0.00 | 72 | 1009.9 |
| 20260506175618 | 30 | 227 | 6.4 | 19.3 | 0.00 | 0.00 | 0.00 | 72 | 1010.0 |
| 20260506175016 | 29 | 223 | 6.4 | 16.1 | 0.00 | 0.00 | 0.00 | 73 | 1010.0 |
| 20260506174538 | 29 | 180 | 8.0 | 16.1 | 0.00 | 0.00 | 0.00 | 73 | 1010.0 |
| 20260506174102 | 29 | 264 | 8.0 | 19.3 | 0.00 | 0.00 | 0.00 | 73 | 1010.1 |
| 20260506173622 | 29 | 183 | 9.7 | 19.3 | 0.00 | 0.00 | 0.00 | 73 | 1010.2 |
| 20260506173012 | 29 | 209 | 8.0 | 17.7 | 0.00 | 0.00 | 0.00 | 72 | 1010.2 |
| 20260506172532 | 29 | 232 | 8.0 | 14.5 | 0.00 | 0.00 | 0.00 | 72 | 1010.2 |
| 20260506172104 | 29 | 197 | 9.7 | 17.7 | 0.00 | 0.00 | 0.00 | 72 | 1010.2 |
| 20260506171620 | 29 | 234 | 9.7 | 20.9 | 0.00 | 0.00 | 0.00 | 72 | 1010.2 |
| 20260506171134 | 29 | 277 | 8.0 | 19.3 | 0.00 | 0.00 | 0.00 | 72 | 1010.2 |
| 20260506170517 | 29 | 200 | 6.4 | 19.3 | 0.00 | 0.00 | 0.00 | 71 | 1010.3 |
| 20260506170047 | 29 | 235 | 9.7 | 14.5 | 0.00 | 0.00 | 0.00 | 71 | 1010.3 |
| 20260506165534 | 29 | 215 | 8.0 | 14.5 | 0.00 | 0.00 | 0.00 | 71 | 1010.2 |
| 20260506165056 | 29 | 165 | 8.0 | 12.9 | 0.00 | 0.00 | 0.00 | 73 | 1010.2 |
| 20260506164627 | 28 | 258 | 4.8 | 14.5 | 0.00 | 0.00 | 0.00 | 73 | 1010.2 |
| 20260506164135 | 28 | 257 | 4.8 | 14.5 | 0.00 | 0.00 | 0.00 | 72 | 1010.2 |
| 20260506163518 | 28 | 276 | 6.4 | 14.5 | 0.00 | 0.00 | 0.00 | 72 | 1010.2 |
| 20260506163112 | 28 | 213 | 8.0 | 14.5 | 0.00 | 0.00 | 0.00 | 71 | 1010.1 |
| 20260506162619 | 28 | 232 | 4.8 | 11.3 | 0.00 | 0.00 | 0.00 | 71 | 1010.1 |
| 20260506162008 | 28 | 266 | 6.4 | 12.9 | 0.00 | 0.00 | 0.00 | 71 | 1010.0 |
| 20260506161523 | 28 | 223 | 4.8 | 11.3 | 0.00 | 0.00 | 0.00 | 71 | 1009.9 |
| 20260506161110 | 28 | 254 | 4.8 | 11.3 | 0.00 | 0.00 | 0.00 | 71 | 1009.9 |
| 20260506160630 | 28 | 254 | 4.8 | 11.3 | 0.00 | 0.00 | 0.00 | 71 | 1009.9 |
| 20260506160056 | 28 | 236 | 3.2 | 11.3 | 0.00 | 0.00 | 0.00 | 71 | 1009.8 |
| 20260506155540 | 28 | 215 | 6.4 | 11.3 | 0.00 | 0.00 | 0.00 | 71 | 1009.8 |
| 20260506155002 | 28 | 279 | 4.8 | 11.3 | 0.00 | 0.00 | 0.00 | 71 | 1009.8 |
| 20260506154520 | 28 | 248 | 3.2 | 8.0 | 0.00 | 0.00 | 0.00 | 72 | 1009.8 |
| 20260506154110 | 28 | 278 | 4.8 | 11.3 | 0.00 | 0.00 | 0.00 | 72 | 1009.7 |
| 20260506153626 | 28 | 276 | 6.4 | 11.3 | 0.00 | 0.00 | 0.00 | 72 | 1009.7 |
| 20260506153032 | 28 | 211 | 3.2 | 8.0 | 0.00 | 0.00 | 0.00 | 73 | 1009.6 |
| 20260506152614 | 27 | 236 | 3.2 | 8.0 | 0.00 | 0.00 | 0.00 | 73 | 1009.6 |
| 20260506152136 | 27 | 254 | 3.2 | 9.7 | 0.00 | 0.00 | 0.00 | 73 | 1009.6 |
| 20260506151518 | 27 | 261 | 3.2 | 9.7 | 0.00 | 0.00 | 0.00 | 74 | 1009.6 |
| 20260506151107 | 27 | 227 | 4.8 | 8.0 | 0.00 | 0.00 | 0.00 | 74 | 1009.6 |
| 20260506150626 | 27 | 261 | 3.2 | 9.7 | 0.00 | 0.00 | 0.00 | 74 | 1009.4 |
| 20260506150043 | 27 | 203 | 1.6 | 8.0 | 0.00 | 0.00 | 0.00 | 74 | 1009.4 |
| 20260506145616 | 27 | 251 | 3.2 | 8.0 | 0.00 | 0.00 | 0.00 | 74 | 1009.4 |
| 20260506145030 | 27 | 184 | 3.2 | 6.4 | 0.00 | 0.00 | 0.00 | 74 | 1009.3 |
| 20260506144545 | 26 | 220 | 3.2 | 6.4 | 0.00 | 0.00 | 0.00 | 73 | 1009.3 |
| 20260506144133 | 26 | 230 | 3.2 | 6.4 | 0.00 | 0.00 | 0.00 | 72 | 1009.3 |
| 20260506143521 | 26 | 229 | 3.2 | 6.4 | 0.00 | 0.00 | 0.00 | 72 | 1009.2 |
| 20260506143100 | 26 | 338 | 1.6 | 6.4 | 0.00 | 0.00 | 0.00 | 72 | 1009.1 |
| 20260506142619 | 26 | 328 | 1.6 | 4.8 | 0.00 | 0.00 | 0.00 | 72 | 1009.1 |
| 20260506142011 | 26 | 348 | 1.6 | 4.8 | 0.00 | 0.00 | 0.00 | 73 | 1008.9 |
| 20260506141542 | 25 | 346 | 1.6 | 6.4 | 0.00 | 0.00 | 0.00 | 73 | 1008.9 |
| 20260506141108 | 25 | 351 | 0.0 | 6.4 | 0.00 | 0.00 | 0.00 | 73 | 1008.8 |
| 20260506140624 | 25 | 355 | 3.2 | 4.8 | 0.00 | 0.00 | 0.00 | 73 | 1008.7 |
| 20260506140039 | 25 | 43 | 0.0 | 4.8 | 0.00 | 0.00 | 0.00 | 75 | 1008.6 |
| 20260506135608 | 25 | 53 | 1.6 | 3.2 | 0.00 | 0.00 | 0.00 | 76 | 1008.6 |
| 20260506135134 | 25 | 58 | 0.0 | 3.2 | 0.00 | 0.00 | 0.00 | 77 | 1008.6 |
| 20260506134518 | 25 | 59 | 0.0 | 4.8 | 0.00 | 0.00 | 0.00 | 77 | 1008.5 |
| 20260506134057 | 25 | 59 | 0.0 | 4.8 | 0.00 | 0.00 | 0.00 | 77 | 1008.5 |
| 20260506133610 | 25 | 40 | 0.0 | 4.8 | 0.00 | 0.00 | 0.00 | 78 | 1008.5 |
| 20260506133017 | 25 | 41 | 1.6 | 4.8 | 0.00 | 0.00 | 0.00 | 78 | 1008.5 |
| 20260506132534 | 25 | 34 | 0.0 | 3.2 | 0.00 | 0.00 | 0.00 | 79 | 1008.5 |
| 20260506132058 | 24 | 30 | 0.0 | 0.0 | 0.00 | 0.00 | 0.00 | 79 | 1008.5 |
| 20260506131617 | 24 | 30 | 0.0 | 0.0 | 0.00 | 0.00 | 0.00 | 79 | 1008.5 |
| 20260506131002 | 24 | 30 | 0.0 | 0.0 | 0.00 | 0.00 | 0.00 | 79 | 1008.5 |
| 20260506130526 | 24 | 30 | 0.0 | 0.0 | 0.00 | 0.00 | 0.00 | 78 | 1008.4 |
| 20260506130047 | 24 | 31 | 0.0 | 3.2 | 0.00 | 0.00 | 0.00 | 78 | 1008.3 |
| 20260506125627 | 24 | 30 | 0.0 | 3.2 | 0.00 | 0.00 | 0.00 | 78 | 1008.2 |
| 20260506125017 | 24 | 30 | 0.0 | 3.2 | 0.00 | 0.00 | 0.00 | 78 | 1008.2 |
| 20260506124535 | 24 | 30 | 0.0 | 3.2 | 0.00 | 0.00 | 0.00 | 78 | 1008.1 |
| 20260506124106 | 24 | 30 | 0.0 | 1.6 | 0.00 | 0.00 | 0.00 | 78 | 1008.1 |
| 20260506123618 | 24 | 30 | 0.0 | 1.6 | 0.00 | 0.00 | 0.00 | 78 | 1008.1 |
| 20260506123015 | 24 | 30 | 0.0 | 1.6 | 0.00 | 0.00 | 0.00 | 78 | 1008.0 |
| 20260506122532 | 24 | 30 | 0.0 | 3.2 | 0.00 | 0.00 | 0.00 | 78 | 1007.9 |
| 20260506122059 | 24 | 30 | 0.0 | 3.2 | 0.00 | 0.00 | 0.00 | 78 | 1007.9 |
| 20260506121615 | 25 | 30 | 0.0 | 3.2 | 0.00 | 0.00 | 0.00 | 79 | 1007.9 |
| 20260506121008 | 25 | 15 | 1.6 | 3.2 | 0.00 | 0.00 | 0.00 | 79 | 1007.8 |
| 20260506120522 | 25 | 11 | 0.0 | 3.2 | 0.00 | 0.00 | 0.00 | 79 | 1007.8 |
| 20260506120058 | 25 | 11 | 0.0 | 4.8 | 0.00 | 0.00 | 0.00 | 79 | 1007.8 |
| 20260506115621 | 25 | 11 | 1.6 | 4.8 | 0.00 | 0.00 | 0.00 | 79 | 1007.7 |
| 20260506115010 | 25 | 90 | 0.0 | 0.0 | 0.00 | 0.00 | 0.00 | 78 | 1007.6 |
| 20260506114532 | 25 | 90 | 0.0 | 0.0 | 0.00 | 0.00 | 0.00 | 78 | 1007.5 |
| 20260506114108 | 25 | 90 | 0.0 | 0.0 | 0.00 | 0.00 | 0.00 | 78 | 1007.4 |
| 20260506113626 | 25 | 90 | 0.0 | 0.0 | 0.00 | 0.00 | 0.00 | 78 | 1007.4 |
| 20260506113026 | 25 | 90 | 0.0 | 0.0 | 0.00 | 0.00 | 0.00 | 78 | 1007.4 |
| 20260506112549 | 25 | 90 | 0.0 | 0.0 | 0.00 | 0.00 | 0.00 | 78 | 1007.5 |
| 20260506112133 | 25 | 90 | 0.0 | 0.0 | 0.00 | 0.00 | 0.00 | 78 | 1007.5 |
| 20260506111519 | 25 | 90 | 0.0 | 0.0 | 0.00 | 0.00 | 0.00 | 78 | 1007.4 |
| 20260506111033 | 25 | 90 | 0.0 | 0.0 | 0.00 | 0.00 | 0.00 | 77 | 1007.5 |
| 20260506110619 | 25 | 90 | 0.0 | 0.0 | 0.00 | 0.00 | 0.00 | 77 | 1007.5 |
| 20260506110008 | 25 | 90 | 0.0 | 4.8 | 0.00 | 0.00 | 0.00 | 77 | 1007.4 |
| 20260506105524 | 25 | 90 | 0.0 | 4.8 | 0.00 | 0.00 | 0.00 | 77 | 1007.5 |
| 20260506105103 | 25 | 84 | 0.0 | 3.2 | 0.00 | 0.00 | 0.00 | 77 | 1007.5 |
| 20260506104619 | 25 | 80 | 0.0 | 3.2 | 0.00 | 0.00 | 0.00 | 77 | 1007.4 |
| 20260506104016 | 25 | 80 | 0.0 | 0.0 | 0.00 | 0.00 | 0.00 | 77 | 1007.5 |
| 20260506103534 | 25 | 80 | 0.0 | 3.2 | 0.00 | 0.00 | 0.00 | 77 | 1007.5 |
| 20260506103052 | 25 | 80 | 0.0 | 4.8 | 0.00 | 0.00 | 0.00 | 77 | 1007.5 |
| 20260506102610 | 25 | 80 | 1.6 | 4.8 | 0.00 | 0.00 | 0.00 | 77 | 1007.4 |
| 20260506102014 | 26 | 75 | 0.0 | 3.2 | 0.00 | 0.00 | 0.00 | 77 | 1007.4 |
| 20260506101529 | 26 | 72 | 0.0 | 3.2 | 0.00 | 0.00 | 0.00 | 77 | 1007.4 |
| 20260506101105 | 26 | 72 | 0.0 | 4.8 | 0.00 | 0.00 | 0.00 | 77 | 1007.4 |
| 20260506100619 | 26 | 72 | 0.0 | 4.8 | 0.00 | 0.00 | 0.00 | 77 | 1007.5 |
| 20260506100002 | 26 | 71 | 0.0 | 4.8 | 0.00 | 0.00 | 0.00 | 77 | 1007.5 |
| 20260506095520 | 26 | 96 | 0.0 | 4.8 | 0.00 | 0.00 | 0.00 | 77 | 1007.5 |
| 20260506095106 | 26 | 96 | 0.0 | 4.8 | 0.00 | 0.00 | 0.00 | 77 | 1007.5 |
| 20260506094627 | 26 | 92 | 1.6 | 3.2 | 0.00 | 0.00 | 0.00 | 77 | 1007.6 |
| 20260506094002 | 26 | 92 | 0.0 | 3.2 | 0.00 | 0.00 | 0.00 | 77 | 1007.6 |
| 20260506093517 | 26 | 92 | 0.0 | 3.2 | 0.00 | 0.00 | 0.00 | 77 | 1007.7 |
| 20260506093053 | 26 | 92 | 0.0 | 3.2 | 0.00 | 0.00 | 0.00 | 77 | 1007.7 |
| 20260506092614 | 26 | 92 | 0.0 | 1.6 | 0.00 | 0.00 | 0.00 | 77 | 1007.6 |
| 20260506092135 | 26 | 92 | 0.0 | 1.6 | 0.00 | 0.00 | 0.00 | 77 | 1007.6 |
| 20260506091520 | 26 | 92 | 0.0 | 1.6 | 0.00 | 0.00 | 0.00 | 77 | 1007.6 |
| 20260506091051 | 26 | 92 | 0.0 | 1.6 | 0.00 | 0.00 | 0.00 | 77 | 1007.7 |
| 20260506090609 | 26 | 92 | 0.0 | 3.2 | 0.00 | 0.00 | 0.00 | 77 | 1007.8 |
| 20260506090002 | 26 | 92 | 0.0 | 4.8 | 0.00 | 0.00 | 0.00 | 77 | 1007.9 |
| 20260506085520 | 26 | 132 | 0.0 | 3.2 | 0.00 | 0.00 | 0.00 | 77 | 1008.0 |
| 20260506085050 | 26 | 132 | 0.0 | 3.2 | 0.00 | 0.00 | 0.00 | 78 | 1008.0 |
| 20260506084636 | 26 | 134 | 0.0 | 3.2 | 0.00 | 0.00 | 0.00 | 78 | 1008.0 |
| 20260506084019 | 26 | 134 | 1.6 | 4.8 | 0.00 | 0.00 | 0.00 | 78 | 1008.1 |
| 20260506083536 | 26 | 134 | 1.6 | 4.8 | 0.00 | 0.00 | 0.00 | 79 | 1008.2 |
| 20260506083125 | 26 | 110 | 1.6 | 4.8 | 0.00 | 0.00 | 0.00 | 79 | 1008.2 |
| 20260506082515 | 26 | 67 | 0.0 | 6.4 | 0.00 | 0.00 | 0.00 | 79 | 1008.2 |
| 20260506082057 | 26 | 59 | 1.6 | 6.4 | 0.00 | 0.00 | 0.00 | 79 | 1008.3 |
| 20260506081613 | 26 | 28 | 0.0 | 3.2 | 0.00 | 0.00 | 0.00 | 80 | 1008.3 |
| 20260506081022 | 26 | 28 | 0.0 | 3.2 | 0.00 | 0.00 | 0.00 | 80 | 1008.4 |
| 20260506080536 | 26 | 28 | 0.0 | 4.8 | 0.00 | 0.00 | 0.00 | 80 | 1008.4 |
| 20260506080130 | 27 | 28 | 1.6 | 4.8 | 0.00 | 0.00 | 0.00 | 80 | 1008.5 |
| 20260506073529 | 26 | 317 | 1.6 | 4.8 | 0.00 | 0.00 | 0.00 | 81 | 1008.5 |
| 20260506073057 | 26 | 306 | 0.0 | 4.8 | 0.00 | 0.00 | 0.00 | 81 | 1008.6 |
| 20260506072613 | 26 | 305 | 1.6 | 4.8 | 0.00 | 0.00 | 0.00 | 81 | 1008.7 |
| 20260506072002 | 26 | 309 | 3.2 | 4.8 | 0.00 | 0.00 | 0.00 | 82 | 1008.7 |
| 20260506071519 | 26 | 316 | 1.6 | 4.8 | 0.00 | 0.00 | 0.00 | 82 | 1008.7 |
| 20260506071055 | 26 | 275 | 1.6 | 4.8 | 0.00 | 0.00 | 0.00 | 82 | 1008.7 |
| 20260506070617 | 26 | 257 | 1.6 | 4.8 | 0.00 | 0.00 | 0.00 | 82 | 1008.7 |
| 20260506062009 | 27 | 223 | 1.6 | 4.8 | 0.00 | 0.00 | 0.00 | 81 | 1009.1 |
| 20260506061524 | 27 | 266 | 1.6 | 8.0 | 0.00 | 0.00 | 0.00 | 81 | 1009.2 |
| 20260506061055 | 27 | 242 | 3.2 | 8.0 | 0.00 | 0.00 | 0.00 | 82 | 1009.2 |
| 20260506060615 | 27 | 219 | 1.6 | 8.0 | 0.00 | 0.00 | 0.00 | 81 | 1009.2 |
| 20260506060143 | 27 | 219 | 3.2 | 8.0 | 0.00 | 0.00 | 0.00 | 81 | 1009.2 |
| 20260506051001 | 27 | 203 | 1.6 | 6.4 | 0.00 | 0.00 | 0.00 | 82 | 1009.2 |
| 20260506050521 | 27 | 184 | 1.6 | 6.4 | 0.00 | 0.00 | 0.00 | 82 | 1009.2 |
| 20260506045108 | 27 | 248 | 1.6 | 6.4 | 0.00 | 0.00 | 0.00 | 82 | 1009.2 |
| 20260506044622 | 27 | 195 | 4.8 | 6.4 | 0.00 | 0.00 | 0.00 | 82 | 1009.3 |
| 20260506044013 | 27 | 229 | 3.2 | 8.0 | 0.00 | 0.00 | 0.00 | 82 | 1009.2 |
| 20260506043533 | 27 | 188 | 1.6 | 6.4 | 0.00 | 0.00 | 0.00 | 82 | 1009.2 |
| 20260506043059 | 27 | 188 | 3.2 | 6.4 | 0.00 | 0.00 | 0.00 | 82 | 1009.1 |
| 20260506042615 | 27 | 173 | 0.0 | 6.4 | 0.00 | 0.00 | 0.00 | 82 | 1009.1 |
| 20260506042007 | 27 | 200 | 1.6 | 6.4 | 0.00 | 0.00 | 0.00 | 82 | 1009.1 |
| 20260506041530 | 27 | 191 | 1.6 | 8.0 | 0.00 | 0.00 | 0.00 | 82 | 1009.1 |
| 20260506041057 | 27 | 177 | 3.2 | 8.0 | 0.00 | 0.00 | 0.00 | 82 | 1009.2 |
| 20260506040619 | 27 | 181 | 1.6 | 9.7 | 0.00 | 0.00 | 0.00 | 82 | 1009.1 |
| 20260506040039 | 27 | 178 | 4.8 | 9.7 | 0.00 | 0.00 | 0.00 | 81 | 1009.2 |
| 20260506035531 | 27 | 198 | 1.6 | 11.3 | 0.00 | 0.00 | 0.00 | 81 | 1009.2 |
| 20260506035101 | 27 | 200 | 4.8 | 12.9 | 0.00 | 0.00 | 0.00 | 81 | 1009.2 |
| 20260506034623 | 27 | 198 | 1.6 | 6.4 | 0.00 | 0.00 | 0.00 | 81 | 1009.2 |
| 20260506034008 | 27 | 230 | 1.6 | 6.4 | 0.00 | 0.00 | 0.00 | 80 | 1009.0 |
| 20260506033529 | 27 | 231 | 1.6 | 8.0 | 0.00 | 0.00 | 0.00 | 80 | 1009.0 |
| 20260506033100 | 27 | 247 | 3.2 | 8.0 | 0.00 | 0.00 | 0.00 | 80 | 1008.9 |
| 20260506032613 | 27 | 203 | 0.0 | 6.4 | 0.00 | 0.00 | 0.00 | 80 | 1008.9 |
| 20260506032008 | 27 | 194 | 4.8 | 9.7 | 0.00 | 0.00 | 0.00 | 80 | 1008.9 |
| 20260506031525 | 27 | 180 | 3.2 | 6.4 | 0.00 | 0.00 | 0.00 | 80 | 1008.8 |
| 20260506031051 | 27 | 186 | 3.2 | 6.4 | 0.00 | 0.00 | 0.00 | 80 | 1008.8 |
| 20260506030608 | 27 | 202 | 1.6 | 6.4 | 0.00 | 0.00 | 0.00 | 80 | 1008.9 |
| 20260506030009 | 27 | 244 | 1.6 | 9.7 | 0.00 | 0.00 | 0.00 | 80 | 1008.8 |
| 20260506025529 | 27 | 180 | 1.6 | 9.7 | 0.00 | 0.00 | 0.00 | 80 | 1008.8 |
| 20260506025100 | 27 | 194 | 1.6 | 9.7 | 0.00 | 0.00 | 0.00 | 80 | 1008.8 |
| 20260506024615 | 27 | 196 | 4.8 | 9.7 | 0.00 | 0.00 | 0.00 | 80 | 1008.7 |
| 20260506024131 | 27 | 182 | 4.8 | 9.7 | 0.00 | 0.00 | 0.00 | 80 | 1008.6 |
| 20260506023513 | 27 | 177 | 4.8 | 9.7 | 0.00 | 0.00 | 0.00 | 80 | 1008.6 |
| 20260506023110 | 27 | 192 | 3.2 | 9.7 | 0.00 | 0.00 | 0.00 | 80 | 1008.4 |
| 20260506022622 | 27 | 208 | 1.6 | 8.0 | 0.00 | 0.00 | 0.00 | 80 | 1008.4 |
| 20260506022012 | 27 | 186 | 3.2 | 14.5 | 0.00 | 0.00 | 0.00 | 80 | 1008.4 |
| 20260506021543 | 27 | 242 | 3.2 | 14.5 | 0.00 | 0.00 | 0.00 | 80 | 1008.3 |
| 20260506021053 | 27 | 213 | 3.2 | 11.3 | 0.00 | 0.00 | 0.00 | 80 | 1008.2 |
| 20260506020614 | 27 | 209 | 4.8 | 11.3 | 0.00 | 0.00 | 0.00 | 80 | 1008.1 |
| 20260506020015 | 27 | 210 | 3.2 | 14.5 | 0.00 | 0.00 | 0.00 | 80 | 1008.1 |
| 20260506015536 | 27 | 232 | 4.8 | 14.5 | 0.00 | 0.00 | 0.00 | 80 | 1008.0 |
| 20260506015105 | 27 | 213 | 6.4 | 12.9 | 0.00 | 0.00 | 0.00 | 80 | 1008.0 |
| 20260506014624 | 27 | 207 | 3.2 | 11.3 | 0.00 | 0.00 | 0.00 | 80 | 1007.9 |
| 20260506014009 | 27 | 180 | 3.2 | 11.3 | 0.00 | 0.00 | 0.00 | 79 | 1007.7 |
| 20260506013528 | 27 | 232 | 3.2 | 11.3 | 0.00 | 0.00 | 0.00 | 79 | 1007.6 |
| 20260506013107 | 27 | 194 | 4.8 | 11.3 | 0.00 | 0.00 | 0.00 | 79 | 1007.6 |
| 20260506012617 | 27 | 257 | 3.2 | 8.0 | 0.00 | 0.00 | 0.00 | 79 | 1007.4 |
| 20260506012013 | 27 | 217 | 4.8 | 8.0 | 0.00 | 0.00 | 0.00 | 79 | 1007.3 |
| 20260506011533 | 27 | 232 | 3.2 | 11.3 | 0.00 | 0.00 | 0.00 | 79 | 1007.2 |
| 20260506011103 | 27 | 193 | 6.4 | 11.3 | 0.00 | 0.00 | 0.00 | 79 | 1007.1 |
| 20260506010619 | 27 | 236 | 3.2 | 9.7 | 0.00 | 0.00 | 0.00 | 79 | 1007.1 |
| 20260506010036 | 27 | 190 | 3.2 | 12.9 | 0.00 | 0.00 | 0.00 | 79 | 1007.0 |
| 20260506005540 | 27 | 223 | 4.8 | 16.1 | 0.00 | 0.00 | 0.00 | 79 | 1007.0 |
| 20260506005100 | 27 | 189 | 3.2 | 19.3 | 0.00 | 0.00 | 0.00 | 79 | 1007.0 |
| 20260506004626 | 27 | 189 | 3.2 | 19.3 | 0.00 | 0.00 | 0.00 | 79 | 1006.9 |
| 20260506004017 | 27 | 163 | 4.8 | 16.1 | 0.00 | 0.00 | 0.00 | 79 | 1006.9 |
| 20260506003535 | 27 | 189 | 8.0 | 19.3 | 0.00 | 0.00 | 0.00 | 79 | 1006.9 |
| 20260506003109 | 27 | 201 | 8.0 | 19.3 | 0.00 | 0.00 | 0.00 | 78 | 1006.8 |
| 20260506002624 | 27 | 197 | 9.7 | 16.1 | 0.00 | 0.00 | 0.00 | 78 | 1006.9 |
| 20260506002012 | 27 | 246 | 6.4 | 19.3 | 0.00 | 0.00 | 0.00 | 78 | 1006.9 |
| 20260506001536 | 27 | 185 | 8.0 | 17.7 | 0.00 | 0.00 | 0.00 | 78 | 1006.8 |
| 20260506001101 | 27 | 208 | 8.0 | 17.7 | 0.00 | 0.00 | 0.00 | 77 | 1006.8 |
| 20260506000615 | 27 | 163 | 9.7 | 14.5 | 0.00 | 0.00 | 0.00 | 77 | 1006.8 |
| 20260506000012 | 28 | 188 | 8.0 | 16.1 | 0.00 | 0.00 | 0.00 | 77 | 1006.8 |
| 20260505235535 | 28 | 221 | 6.4 | 14.5 | 0.00 | 0.00 | 0.00 | 77 | 1006.8 |
| 20260505235059 | 28 | 196 | 8.0 | 17.7 | 0.00 | 0.00 | 0.00 | 77 | 1006.8 |
| 20260505234617 | 28 | 202 | 8.0 | 24.1 | 0.00 | 0.00 | 0.00 | 76 | 1006.7 |
| 20260505234019 | 28 | 198 | 9.7 | 24.1 | 0.00 | 0.00 | 0.00 | 76 | 1006.7 |
| 20260505233530 | 28 | 256 | 8.0 | 16.1 | 0.00 | 0.00 | 0.00 | 76 | 1006.9 |